Hourly Data Report for September 27, 2017

All times are specified in Local Standard Time (LST). Add 1 hour to adjust for Daylight Saving Time where and when it is observed.

EUREKA CLIMATE
NUNAVUT

79°59'21.000" N
85°56'02.000" W
10.00 m
2401199
71613
NEK

Download Data

Hourly Data (September 2017)
Hourly Data Report for September 27, 2017
Temp Definition
°C
Dew Point Temp Definition
°C
Rel Hum Definition
%
Wind Dir Definition
10's deg

Wind Spd Definition
km/h
Visibility Definition
km
Stn Press Definition
kPa
Hmdx Definition


Wind Chill Definition


Weather Definition


TIME
00:00 -19.7 -21.3 87 12 4   100.84   -23 LegendNANA
01:00 -18.8 -20.3 88 10 9   100.82   -25 LegendNANA
02:00 -18.1 -19.5 89 9 6   100.79   -23 LegendNANA
03:00 -18.8 -20.5 87 7 8   100.78   -25 LegendNANA
04:00 -19.0 -20.5 88 11 3   100.75   -21 LegendNANA
05:00 -18.9 -20.4 88 9 14   100.73   -27 LegendNANA
06:00 -17.9 -19.4 88 9 9   100.71   -24 LegendNANA
07:00 -17.2 -18.9 87 3 9   100.67   -23 LegendNANA
08:00 -17.8 -19.5 87 10 12   100.65   -25 LegendNANA
09:00 -16.7 -18.4 87 9 7   100.61   -22 LegendNANA
10:00 -16.3 -18.8 81 16 2   100.60   -18 LegendNANA
11:00 -17.8 -20.1 83 11 8   100.59   -24 LegendNANA
12:00 -17.6 -19.2 87 5 8   100.59   -23 LegendNANA
13:00 -15.4 -18.4 78 8 4   100.59   -18 LegendNANA
14:00 -16.0 -17.6 88 11 5   100.58   -20 LegendNANA
15:00 -15.4 -16.7 90 11 3   100.58   -18 LegendNANA
16:00 -12.9 -14.1 91 10 5   100.58   -16 LegendNANA
17:00 -12.6 -13.9 90 12 5   100.57   -16 LegendNANA
18:00 -11.9 -13.0 91 14 3   100.52   -14 LegendNANA
19:00 -11.4 -12.7 90 14 5   100.50   -15 LegendNANA
20:00 -11.7 -13.0 90 10 8   100.45   -16 LegendNANA
21:00 -11.4 -12.9 89 36 7   100.42   -16 LegendNANA
22:00 -11.3 -12.4 92 29 9   100.38   -16 LegendNANA
23:00 -9.8 -10.9 92 28 17   100.35   -17 LegendNANA

Notes on Data Quality.

Legend

  • E = Estimated
  • M = Missing
  • NA = Not Available
  • ‡ = Partner data that is not subject to review by the National Climate Archives
Date modified: